GFSGBSN_500_spd_000.txt.gz
Wind_Speed
26 27 26 27 31 33 32 29 27 26 24 23 22 20 20 21 20 18 17 17 17 17 17 16 14 14 13 12 11 11 11 9 8 6 4 4 3 5 4 3 4 2 2 1 3 9 11
23 25 25 24 26 30 31 31 29 27 25 24 22 21 21 21 21 20 19 18 17 17 18 16 15 15 15 13 12 11 11 11 10 9 7 6 5 5 6 6 4 4 4 4 4 7 9
23 23 23 24 23 23 28 30 29 29 27 26 24 22 21 21 22 21 20 20 19 18 17 18 17 16 17 15 14 14 14 13 13 12 9 8 8 8 8 8 7 7 8 9 7 8 9
23 23 20 24 26 29 26 27 27 27 27 27 26 24 23 23 22 22 21 21 21 21 19 17 18 19 19 17 15 15 16 15 14 13 11 11 11 11 11 11 11 11 13 14 4 9 17
26 25 26 31 28 28 26 26 27 27 26 26 26 25 24 24 24 24 23 23 20 21 22 20 20 20 22 21 19 18 18 17 16 15 14 14 13 12 11 9 11 10 15 14 25 13 9
30 29 33 32 27 25 25 25 26 25 25 23 22 22 21 21 22 23 24 26 26 24 22 25 23 22 24 21 20 22 22 20 20 18 17 16 15 14 13 10 9 4 16 22 29 12 17
30 31 32 38 30 26 25 26 27 26 26 27 27 27 26 26 25 23 23 23 27 28 26 25 25 26 24 22 22 21 21 21 20 19 18 18 17 16 13 13 12 10 16 14 20 7 26
31 32 33 35 39 32 30 31 32 32 32 32 31 31 30 29 28 27 27 26 24 26 28 29 29 28 27 24 25 23 22 24 24 21 20 20 16 16 17 16 16 15 18 15 17 19 24
30 31 33 35 36 38 37 36 35 35 36 37 37 36 34 33 32 30 30 29 29 28 26 29 30 32 32 30 30 29 27 26 25 25 22 21 20 18 18 18 17 17 17 16 15 14 22
29 31 33 33 34 36 36 36 36 36 37 37 37 37 38 36 34 33 32 29 30 31 31 26 30 30 33 31 33 33 30 32 31 26 25 23 21 20 18 17 17 15 14 16 18 17 16
30 30 32 33 34 35 36 36 36 36 37 38 38 38 38 38 37 36 31 32 31 29 31 32 35 32 30 29 34 31 32 33 31 29 28 22 21 21 19 17 17 14 11 18 19 21 23
31 33 35 35 34 34 33 33 33 33 33 34 34 36 38 39 38 37 34 34 33 32 32 30 35 25 26 24 29 31 31 29 29 28 27 23 22 21 18 18 18 18 19 22 21 22 23
32 33 33 35 36 37 38 37 36 35 34 33 32 32 32 34 36 36 38 37 36 36 27 27 35 28 23 23 23 28 26 27 27 25 24 21 22 22 20 20 21 19 18 23 16 11 12
34 34 33 34 35 35 35 36 37 36 35 35 33 32 31 30 30 32 32 34 36 31 29 25 22 21 26 24 26 25 25 27 27 26 22 19 20 21 21 22 21 24 19 16 11 10 21
32 34 34 34 35 35 35 35 35 35 34 35 34 33 32 32 30 30 31 33 28 24 27 25 25 34 31 25 22 26 27 24 27 26 25 17 16 12 20 28 17 16 22 11 20 23 19
33 32 33 34 35 35 35 36 35 35 35 35 34 34 34 35 34 33 31 27 26 27 32 34 37 30 26 19 22 27 22 21 24 26 27 24 23 21 16 20 20 15 16 14 16 17 18
33 34 35 36 37 38 38 38 38 37 35 35 36 36 38 35 38 38 32 30 29 29 31 27 29 27 26 22 20 22 23 18 17 22 23 25 30 21 18 23 17 19 19 18 13 11 10
35 36 36 38 39 41 42 43 43 42 40 39 37 37 40 37 39 38 35 33 32 32 31 29 29 30 35 32 23 28 21 18 16 19 22 24 25 28 16 23 17 18 18 19 18 13 15
32 32 33 36 37 38 39 41 43 44 45 44 43 42 42 39 41 38 35 37 35 36 33 28 31 29 29 29 38 37 23 18 22 23 21 20 23 19 24 16 20 17 18 19 18 22 24
27 27 28 29 31 33 34 36 38 39 40 42 43 43 46 42 40 41 42 42 38 38 37 32 33 31 31 30 30 27 30 21 33 29 28 32 24 24 18 15 23 23 21 20 21 22 16
24 25 26 26 28 29 28 27 29 33 37 39 39 39 49 48 44 44 45 43 44 42 39 36 35 34 32 31 29 29 29 32 24 33 36 29 29 23 24 20 25 19 14 17 19 23 24
18 20 22 22 24 26 26 27 26 27 28 35 40 39 46 44 46 47 49 48 47 42 40 39 39 37 36 36 31 29 29 32 31 22 27 30 33 30 29 25 17 16 18 15 17 14 18
16 16 17 18 19 19 22 23 23 24 26 28 29 34 40 40 42 42 42 48 50 48 45 42 43 40 39 38 38 35 32 36 34 30 24 28 29 31 30 28 25 23 22 23 25 22 19
16 14 12 11 11 12 13 15 16 20 24 28 30 32 34 35 38 40 46 47 50 51 49 46 46 46 44 48 43 40 43 42 39 40 39 31 32 28 25 24 29 24 33 31 18 20 16
15 13 11 8 7 8 10 12 13 15 18 22 27 31 33 32 38 45 49 52 54 51 55 53 53 53 53 45 41 39 39 40 38 35 36 27 28 30 29 27 23 25 29 35 21 25 25
15 13 10 8 7 6 7 9 11 12 13 17 21 25 29 34 38 39 43 50 53 51 56 58 57 54 51 44 39 39 39 39 39 36 36 35 37 25 24 26 29 20 30 30 22 26 32
15 15 12 10 8 6 6 9 11 10 11 10 12 15 22 28 34 36 39 45 48 54 53 57 56 56 49 42 43 43 40 33 32 36 39 40 39 38 38 35 26 25 38 39 37 34 34
16 15 14 12 9 8 8 8 11 10 9 9 10 13 15 23 32 37 36 38 41 43 43 42 47 53 49 45 44 43 39 24 25 25 28 29 30 38 35 35 38 36 43 40 40 38 41
17 15 14 12 11 10 9 9 8 10 9 8 9 10 12 13 27 35 35 47 40 41 32 40 46 48 52 45 47 46 43 41 43 33 30 36 34 32 33 35 39 44 49 46 44 42 41

GFSGBSN_500_spd_003.txt.gz
Wind_Speed
32 31 31 30 32 36 36 33 30 28 26 24 24 22 21 20 19 18 17 17 16 17 16 16 15 14 14 10 12 11 12 12 9 7 6 6 6 6 6 5 4 6 4 5 2 3 9
29 27 27 27 28 31 35 35 32 29 27 26 25 22 21 20 20 19 18 17 17 16 16 16 15 15 14 9 12 11 13 12 10 9 8 7 7 6 7 6 6 3 3 5 4 6 8
24 23 23 24 25 26 30 33 33 31 29 28 25 23 23 21 20 20 20 18 17 16 15 14 15 15 14 11 13 13 13 12 11 11 10 9 8 8 8 6 6 6 5 4 9 11 3
21 22 23 24 25 25 25 29 32 31 30 29 26 24 22 21 20 19 18 18 18 18 17 15 14 16 15 15 13 14 13 13 12 12 11 11 10 10 6 5 7 8 10 11 14 13 10
20 22 23 22 21 24 24 24 25 29 31 30 28 27 25 23 21 20 20 19 18 18 19 18 16 16 17 19 16 13 14 13 12 11 11 11 12 10 6 3 3 7 9 17 20 19 7
23 26 26 25 24 26 27 28 31 27 27 27 27 26 25 24 23 22 22 22 21 21 19 19 20 19 17 17 16 19 19 17 16 14 14 15 14 12 11 7 6 10 7 30 19 11 10
26 29 29 29 28 27 36 32 27 26 26 26 26 25 24 23 21 20 21 23 24 24 23 25 20 24 21 20 18 20 20 20 20 18 17 17 15 13 13 11 11 11 6 18 14 12 15
30 30 31 31 30 35 33 30 28 26 26 26 26 25 25 25 24 23 24 24 23 24 22 26 27 24 23 25 22 21 20 19 19 19 19 17 14 16 15 14 13 13 14 14 12 10 15
28 30 32 32 33 34 39 36 32 30 29 29 29 28 28 28 28 28 29 26 27 26 25 22 23 27 28 28 26 24 22 23 21 22 22 21 19 16 14 14 16 15 15 14 15 10 16
28 29 31 32 33 34 38 39 36 34 33 32 32 32 32 32 31 32 31 27 29 29 29 23 27 22 27 31 30 32 28 29 27 25 25 23 19 19 16 15 17 13 14 14 13 18 22
30 29 30 31 32 34 35 36 39 40 38 37 37 37 36 36 35 37 33 33 32 29 32 28 29 29 26 27 26 29 34 30 30 30 30 22 23 19 18 15 16 11 15 17 17 19 19
31 32 33 32 32 33 34 35 36 37 37 37 37 37 37 37 38 37 34 36 34 33 30 28 30 27 28 26 27 28 31 28 28 30 31 27 24 24 19 17 16 15 17 19 17 17 20
31 32 34 35 36 35 34 34 34 34 34 35 34 34 34 36 36 37 37 37 36 36 28 24 28 30 26 24 22 24 25 23 26 27 25 23 22 22 19 15 17 18 17 18 19 15 6
31 33 33 34 36 37 38 39 38 36 34 33 32 32 31 32 31 33 34 36 36 32 27 20 26 27 27 22 22 21 24 20 19 25 23 23 19 15 10 14 17 21 20 19 19 7 10
29 30 32 34 35 36 37 37 37 38 38 38 37 35 35 34 32 33 32 33 30 25 24 30 32 28 17 17 12 20 23 24 18 21 25 22 23 4 20 20 17 13 23 16 16 16 23
31 31 32 32 32 33 34 35 36 36 35 36 36 36 38 36 34 33 32 29 24 26 30 32 34 33 32 30 22 22 22 22 16 19 22 19 24 17 10 13 24 18 18 21 15 12 23
32 32 33 33 33 33 32 32 32 33 33 34 34 35 37 37 38 37 31 28 28 26 30 29 32 35 35 26 25 17 18 26 18 14 20 22 25 24 25 16 25 29 18 25 20 11 4
34 32 33 33 35 35 35 35 35 34 33 33 33 37 37 37 39 39 34 32 31 30 33 32 32 27 25 29 28 28 24 24 7 15 16 19 23 28 31 25 21 26 22 24 22 18 20
35 34 34 33 34 35 36 37 38 39 38 38 37 39 37 36 38 38 37 37 35 34 34 34 32 30 28 26 37 36 29 22 25 21 24 20 28 27 22 27 20 19 17 16 20 20 26
30 31 31 31 31 32 34 36 36 38 39 40 41 42 44 42 40 41 40 41 40 38 37 35 33 29 32 30 33 38 38 32 25 19 30 30 32 26 18 27 18 27 20 7 15 21 18
26 27 28 29 30 29 30 30 32 34 36 37 40 47 48 48 47 47 46 46 43 39 41 40 39 32 32 33 32 31 30 34 30 32 31 32 36 30 20 30 29 21 16 21 28 18 28
22 23 25 25 27 26 27 26 28 29 31 33 34 36 37 38 41 45 45 45 44 43 41 43 40 35 32 34 34 33 30 39 35 30 45 35 37 32 27 35 28 26 18 17 19 14 17
19 19 19 19 19 20 21 22 24 26 28 29 29 35 39 41 40 40 37 41 46 47 46 47 44 40 39 37 40 38 37 40 42 37 35 32 39 36 33 30 38 31 15 20 21 20 19
18 16 15 15 14 14 15 15 16 18 22 25 27 29 31 32 38 41 44 47 50 51 52 49 46 45 44 49 43 39 36 39 41 43 41 40 30 28 30 31 39 34 28 26 29 28 32
15 14 13 12 11 10 10 10 12 14 16 19 22 26 29 32 36 41 45 47 49 54 53 51 47 52 54 53 48 43 41 42 41 38 40 36 33 26 30 31 34 37 38 31 32 31 41
14 13 12 10 8 7 6 3 5 9 11 14 17 21 25 31 38 39 38 41 44 47 53 53 59 59 57 57 49 46 41 38 40 35 33 33 30 32 29 30 32 26 39 37 38 36 31
14 13 12 10 9 8 7 4 3 5 7 11 13 15 18 21 30 33 38 39 40 42 50 52 55 61 59 56 46 43 43 38 39 37 34 36 35 32 29 28 26 27 31 30 30 27 29
16 15 12 12 11 10 9 8 6 6 6 8 9 12 14 17 22 26 33 36 39 35 40 47 48 53 57 57 50 45 45 41 37 34 37 34 35 36 32 34 29 32 22 34 35 34 33
18 17 14 13 12 10 9 7 7 6 6 7 7 7 11 14 19 23 32 36 41 39 41 40 42 43 52 55 54 50 43 41 41 39 42 39 39 35 37 41 40 40 42 40 40 39 37

GFSGBSN_500_spd_009.txt.gz
Wind_Speed
36 35 34 33 34 34 35 34 32 30 29 28 26 25 24 23 22 21 21 20 21 20 19 18 17 15 14 14 13 13 14 14 13 10 8 10 8 7 6 4 3 5 5 12 18 10 6
36 38 38 37 35 34 35 36 35 33 31 30 28 27 26 25 24 23 22 22 21 22 21 20 18 16 16 15 14 13 14 15 14 13 12 10 9 7 6 5 7 7 10 10 11 11 14
28 37 39 39 38 36 35 35 36 36 34 31 30 28 26 26 25 25 23 23 22 21 20 19 18 17 17 17 15 14 14 15 16 16 13 10 9 9 7 8 8 9 9 8 9 11 16
21 26 35 40 40 38 35 32 34 36 37 34 31 29 27 26 26 25 23 23 21 21 19 19 18 17 17 17 16 16 15 16 17 16 15 13 10 10 9 9 10 10 9 8 7 7 12
17 20 26 31 36 33 30 28 30 32 35 37 33 30 28 27 26 25 23 21 22 21 20 19 18 16 16 18 17 15 17 16 16 17 16 13 12 11 10 10 11 10 10 7 7 12 7
17 15 22 25 27 29 30 29 29 30 32 35 35 31 28 26 25 25 23 22 21 21 20 20 18 17 15 14 16 17 16 17 17 16 16 14 10 9 11 12 14 14 12 7 7 16 13
20 17 17 21 25 27 28 29 30 30 30 31 33 32 29 26 25 26 24 23 22 21 20 20 18 18 17 16 17 18 16 16 16 16 17 12 8 13 11 12 16 16 14 9 8 16 14
22 22 22 22 25 27 27 28 29 29 27 28 28 30 30 33 29 28 26 24 23 21 20 19 19 17 16 17 17 17 16 17 19 20 20 13 14 15 12 10 14 16 16 14 10 20 16
24 25 27 27 26 28 27 27 30 29 28 27 25 26 26 30 32 31 28 26 26 25 23 23 22 21 21 19 19 22 21 19 18 19 19 17 18 16 15 14 14 14 16 16 16 21 19
29 28 29 30 31 31 31 30 29 31 30 30 30 29 34 32 35 34 29 29 28 25 24 20 22 19 23 22 21 23 22 23 23 23 23 17 19 18 17 17 17 13 17 19 20 22 19
32 33 32 32 34 36 35 35 34 34 36 36 34 32 35 35 32 32 29 30 27 25 26 23 22 22 23 23 19 23 28 28 26 28 27 23 23 23 21 18 21 16 20 20 21 23 17
31 34 35 34 34 35 36 37 37 35 33 37 42 36 36 34 33 30 31 32 29 29 27 25 24 25 26 26 26 28 27 26 28 30 30 27 28 28 24 23 22 19 21 22 22 20 16
28 29 34 36 35 35 34 35 36 36 36 37 41 37 36 36 33 32 35 35 33 30 25 30 28 27 25 25 28 31 30 28 26 28 28 30 32 32 30 24 19 21 23 23 24 19 20
29 29 30 31 35 36 36 34 34 35 36 38 38 39 39 40 36 35 36 35 33 28 30 31 30 29 28 30 29 33 33 30 26 27 30 31 28 27 25 21 24 26 25 24 21 20 19
31 30 30 30 31 33 36 36 36 35 35 36 36 38 41 40 40 40 39 37 32 33 33 34 33 33 32 32 32 35 34 28 26 28 27 27 24 25 24 27 28 25 25 22 21 18 18
30 31 32 32 32 32 33 35 37 37 38 37 37 39 40 38 39 40 41 36 33 33 31 31 33 34 33 31 33 34 32 28 27 24 25 25 18 26 23 28 27 27 21 18 14 11 13
29 31 32 33 33 33 33 34 35 36 37 39 40 39 38 38 39 40 38 34 32 34 33 31 31 32 31 32 32 31 29 25 27 31 30 27 22 22 26 29 26 24 22 21 13 12 16
28 28 30 32 33 34 33 34 35 35 36 37 40 40 41 43 42 39 35 35 36 37 36 33 32 33 33 32 32 30 26 24 24 25 26 17 22 25 28 24 26 27 24 22 18 12 19
28 28 30 30 31 33 35 35 34 35 35 36 38 39 41 41 42 42 43 42 42 40 39 36 34 33 36 34 33 29 24 21 25 23 25 26 28 26 33 33 29 23 24 24 14 14 19
27 29 31 31 32 31 32 35 35 36 36 37 38 38 39 39 41 41 41 40 40 40 39 38 35 35 35 36 38 34 26 25 28 30 32 30 27 26 28 30 30 22 23 24 23 23 19
23 25 27 29 29 32 33 33 33 35 37 39 39 39 39 39 40 39 38 38 38 40 42 44 42 41 39 37 37 32 32 33 36 36 35 34 30 28 24 23 36 33 28 28 29 30 27
22 23 24 26 27 27 29 30 32 32 34 37 39 40 40 41 43 41 40 40 41 39 41 44 44 44 43 40 39 35 33 33 40 41 38 39 36 32 29 27 27 41 32 34 33 34 31
21 21 22 23 24 25 27 29 31 31 33 33 36 38 40 41 43 43 44 43 43 41 41 43 42 44 46 44 39 38 37 36 46 44 42 44 42 38 35 32 24 30 32 32 35 37 31
21 20 21 21 23 23 24 25 28 30 32 34 35 36 37 39 41 43 44 45 47 47 46 44 44 46 47 46 42 39 39 38 44 51 47 47 47 44 37 37 35 28 24 34 36 38 32
22 20 19 19 20 20 21 22 24 27 30 32 33 34 36 36 38 41 42 43 43 45 49 49 47 47 47 48 44 43 41 41 43 51 54 52 51 48 45 41 39 34 32 33 37 38 39
22 20 18 18 18 18 19 20 21 24 27 30 31 31 32 33 37 39 40 41 41 43 46 49 52 53 51 49 49 46 45 41 44 49 54 56 56 53 48 45 41 30 30 31 40 45 42
23 21 19 19 19 17 16 17 17 18 20 23 23 24 27 30 34 35 37 38 39 39 43 46 50 53 54 53 52 49 47 46 45 47 51 53 56 56 53 43 35 30 27 25 32 39 41
24 22 19 20 18 16 15 15 15 14 13 16 17 18 21 25 26 28 31 35 39 40 41 45 47 51 53 54 55 52 49 50 47 48 49 50 51 52 52 50 39 28 24 25 29 33 37
26 26 22 20 19 16 17 16 16 14 11 12 15 15 15 18 17 21 26 30 32 34 38 41 46 49 53 54 55 54 52 50 49 47 49 51 50 48 49 46 43 35 30 29 29 31 34

GFSGBSN_500_spd_015.txt.gz
Wind_Speed
34 35 34 32 31 30 30 30 30 30 29 28 26 24 22 21 20 19 19 17 17 17 17 16 16 16 16 14 12 10 10 9 8 7 5 4 3 3 2 5 7 5 4 2 2 5 8
35 36 37 36 33 32 31 31 31 32 31 29 28 27 25 23 21 20 20 19 20 18 18 17 16 17 16 15 13 12 11 10 11 9 7 6 5 3 3 4 5 5 2 2 4 6 9
29 34 37 38 37 35 32 32 32 33 33 32 31 30 28 25 23 22 20 20 20 19 19 18 18 18 17 16 14 13 12 11 11 11 10 8 7 7 6 4 3 2 1 3 3 5 8
19 27 33 37 39 38 36 33 33 33 34 34 34 32 30 28 26 24 22 21 20 19 19 19 19 20 18 18 15 14 13 12 12 12 12 12 10 8 8 7 6 4 4 5 6 7 10
19 19 22 31 36 40 40 38 37 34 34 34 34 34 32 31 30 26 24 23 21 21 19 20 20 20 19 18 16 15 14 13 12 12 14 14 12 10 10 9 8 8 8 6 7 8 10
20 20 20 22 27 35 41 42 40 39 36 35 35 35 34 32 31 29 26 25 23 23 21 21 20 19 18 17 16 16 15 14 13 12 14 15 13 13 13 12 11 9 7 5 9 9 12
18 17 21 19 20 25 34 40 43 43 40 38 36 36 36 34 32 29 27 26 26 24 23 23 22 20 18 18 18 18 16 13 12 12 12 13 13 16 12 12 11 10 8 7 11 13 13
25 22 20 20 20 20 27 35 39 41 40 40 38 35 36 35 35 30 27 27 26 24 23 22 22 21 20 19 17 16 17 17 16 15 13 13 16 14 11 12 12 11 9 12 13 14 14
28 25 22 19 20 18 19 27 30 32 33 35 38 37 36 35 34 32 29 27 25 24 23 22 22 22 20 21 19 18 19 19 18 16 15 16 17 15 14 15 14 12 14 14 12 15 15
28 31 26 24 21 21 19 20 23 26 30 33 36 36 36 35 34 34 33 29 25 23 24 24 24 23 21 21 22 21 19 17 16 18 17 18 17 17 15 16 15 15 15 15 15 15 16
28 28 29 27 24 22 23 22 24 25 26 30 33 33 34 35 33 34 34 31 28 23 25 25 26 24 23 23 20 19 20 19 20 20 19 19 17 15 14 16 16 18 18 17 16 16 15
25 27 28 29 29 26 24 27 25 25 27 27 29 30 29 30 31 32 32 31 31 29 26 26 28 27 25 23 23 24 23 22 22 21 20 20 19 18 19 20 20 18 18 19 19 20 20
24 24 26 27 29 28 28 27 29 28 28 28 27 29 29 29 28 27 28 29 30 31 30 27 26 26 25 24 24 25 24 22 21 21 22 22 21 22 24 25 24 23 21 22 24 24 22
24 25 25 25 26 27 29 30 29 30 32 31 30 29 31 31 31 30 31 32 32 31 29 30 28 24 25 25 24 24 23 23 23 23 23 24 24 23 25 26 28 27 28 27 26 27 23
26 26 26 26 26 26 27 29 32 31 32 35 36 36 35 34 37 37 36 36 32 33 31 29 29 28 28 26 25 25 23 22 23 24 26 27 27 26 28 27 26 28 29 27 27 27 22
27 29 28 27 28 28 27 27 28 32 33 32 33 36 38 38 39 41 43 35 32 31 31 33 32 31 29 27 26 26 26 25 25 27 26 25 25 27 27 24 24 26 27 25 25 22 19
25 25 27 29 29 29 29 29 28 28 31 33 33 33 34 37 39 39 44 39 34 34 34 33 32 32 31 30 29 29 30 29 29 28 25 22 24 24 26 23 22 23 27 28 24 21 15
25 26 26 26 28 30 30 30 30 30 30 31 34 34 34 34 37 37 36 38 37 38 36 34 34 35 35 33 32 33 34 33 30 28 23 22 19 19 25 24 21 24 28 29 27 23 22
24 25 25 26 26 27 29 31 31 31 32 32 32 34 36 37 36 36 38 39 38 39 37 38 38 39 37 35 33 32 33 33 31 28 26 23 23 19 22 25 24 25 26 29 25 18 17
24 24 25 27 27 28 28 29 31 33 33 33 34 34 35 37 37 37 37 40 40 40 41 40 41 40 38 36 33 31 31 30 29 28 26 23 25 23 18 22 22 24 24 26 25 21 19
24 25 24 25 27 29 29 29 29 31 33 34 35 35 35 36 37 37 39 39 38 38 39 40 39 38 36 35 32 31 29 27 27 27 26 25 23 26 23 23 24 24 24 26 24 23 22
24 25 24 23 25 27 28 28 30 31 32 33 36 36 36 37 37 38 39 40 40 39 38 38 38 36 35 35 34 32 30 28 31 29 29 30 27 25 24 26 23 23 26 28 32 30 28
25 25 24 23 23 24 25 25 27 29 33 34 35 36 38 38 38 38 39 40 41 42 42 43 41 39 39 39 37 35 33 31 31 34 32 32 30 27 24 22 24 26 26 24 25 28 30
25 25 24 23 22 22 22 24 24 26 29 33 36 38 38 40 39 39 39 39 40 41 43 43 42 41 41 41 39 38 36 34 34 34 35 36 35 33 32 29 24 21 19 22 20 21 22
26 25 24 24 22 21 21 22 23 24 25 28 32 37 40 40 41 42 41 41 41 40 41 42 43 42 42 42 40 40 39 38 35 37 37 36 37 39 40 36 30 24 20 18 16 17 19
27 25 25 24 23 21 21 21 21 22 24 26 28 31 38 41 41 42 42 42 42 42 42 43 42 40 41 42 42 42 40 38 39 38 38 39 36 37 37 39 37 29 25 24 23 25 23
27 26 25 24 24 22 21 20 20 21 23 24 26 29 32 37 40 41 42 43 43 43 44 44 44 43 42 42 42 42 41 41 41 40 40 41 39 38 37 39 40 38 33 30 29 27 28
25 25 25 24 24 22 21 18 18 19 19 20 22 25 29 32 38 39 40 42 43 43 44 44 45 46 46 45 45 45 43 42 42 41 41 41 42 42 38 39 40 38 41 38 33 32 28
25 24 24 24 25 23 20 17 17 16 16 17 19 21 24 27 31 35 39 39 41 43 43 44 45 45 46 46 46 46 46 46 45 44 43 43 43 42 42 40 38 38 38 41 41 39 34

GFSGBSN_500_spd_021.txt.gz
Wind_Speed
34 34 32 31 31 31 31 32 33 32 30 29 27 25 22 19 20 20 20 20 19 19 19 19 19 18 16 14 11 8 6 5 6 6 6 9 9 10 11 14 14 12 10 6 5 3 2
35 35 36 35 33 33 33 32 32 33 33 32 29 28 26 23 22 21 20 20 21 21 20 20 19 18 16 14 12 10 8 7 7 8 8 8 9 10 9 10 12 11 8 7 6 4 4
34 35 36 37 37 34 33 33 33 33 33 33 32 30 27 26 24 21 21 22 21 21 21 21 20 19 17 15 14 13 12 10 9 10 10 10 10 10 10 10 9 8 6 3 1 0 3
27 31 35 37 39 39 37 34 34 33 33 33 34 31 29 28 25 23 22 20 20 21 22 21 21 20 17 17 16 15 14 12 11 11 13 12 11 11 8 8 7 6 4 3 10 6 2
22 23 27 34 39 40 40 40 37 34 33 33 34 34 31 29 28 26 24 23 22 21 20 21 22 20 18 18 17 16 16 15 13 13 15 15 13 11 10 7 4 8 7 6 13 7 6
21 22 22 22 31 37 41 40 40 38 34 34 34 34 34 31 29 27 26 24 23 21 22 22 22 20 21 18 17 18 17 16 15 14 14 15 15 13 11 9 4 9 9 10 15 9 7
17 20 22 22 22 25 34 39 40 40 39 36 35 34 35 34 31 29 27 26 25 24 23 23 21 22 20 20 20 19 18 17 16 15 14 15 16 13 12 15 14 13 16 14 12 13 9
23 22 20 21 22 22 23 29 35 39 41 41 37 35 35 34 33 33 30 29 27 25 25 25 24 22 22 21 20 20 19 18 17 17 16 15 16 21 13 14 13 13 12 10 13 14 10
27 25 25 23 21 19 22 22 26 31 38 43 42 40 36 34 34 35 34 31 29 26 26 27 26 24 24 22 21 20 20 20 19 18 18 17 20 16 17 15 14 13 11 10 10 11 11
28 28 27 28 28 25 20 21 23 24 28 37 43 44 41 37 35 35 35 33 30 28 27 28 27 27 25 24 23 22 22 20 19 18 19 20 21 17 16 15 14 6 15 14 13 12 3
27 28 27 27 27 28 25 22 20 22 22 30 38 43 44 42 38 36 34 34 33 29 25 32 29 24 25 24 26 24 23 20 19 20 18 20 19 18 17 17 16 17 14 16 16 15 15
28 29 30 29 29 27 27 24 23 21 20 23 32 38 41 43 41 39 36 34 34 33 29 31 27 27 26 27 25 26 24 22 21 18 19 20 19 20 20 19 18 20 16 16 16 15 14
24 26 28 29 29 28 27 27 24 22 21 18 25 29 32 35 34 36 36 34 34 38 34 32 28 27 26 26 27 26 24 24 21 19 18 19 19 20 20 19 19 19 17 13 12 12 15
26 26 26 28 28 28 28 27 27 24 23 23 23 24 28 30 31 34 36 37 38 34 23 38 30 27 29 28 28 26 26 24 23 21 13 16 15 20 20 19 19 19 17 15 14 12 16
28 29 28 29 28 29 28 28 28 28 25 25 25 26 26 28 31 31 32 35 32 31 36 34 31 27 30 30 30 29 27 25 23 22 19 12 15 24 18 18 17 13 18 15 19 19 21
28 29 30 31 30 29 29 28 30 30 29 28 29 28 28 29 30 31 32 29 31 37 34 33 32 31 28 29 30 30 28 26 24 25 22 18 17 22 23 20 21 21 22 16 16 16 18
29 29 29 31 33 32 30 29 29 31 31 30 31 32 31 31 32 34 30 30 33 31 33 34 35 33 29 24 27 24 24 30 26 26 25 22 22 15 26 21 16 20 21 21 18 16 19
28 29 30 30 30 34 33 31 31 31 32 33 34 35 35 35 35 33 35 34 35 32 31 30 31 31 36 34 32 27 22 24 30 29 26 24 23 23 20 13 20 22 16 16 16 14 17
27 27 30 30 29 31 34 34 33 33 33 33 35 35 36 37 38 38 40 40 34 35 34 34 36 37 38 33 30 31 30 37 27 28 27 26 26 24 20 18 24 21 21 21 18 22 17
27 27 28 30 29 29 31 34 35 35 35 35 34 34 37 39 42 40 43 42 39 40 39 40 40 37 34 36 36 39 38 39 31 31 28 26 26 27 17 16 17 16 13 16 17 18 15
27 28 27 27 28 28 29 30 33 35 37 36 37 38 35 37 40 42 43 40 41 43 43 42 41 40 37 36 37 37 36 36 32 31 29 30 27 28 24 27 16 16 13 13 19 19 21
25 28 28 28 27 28 29 29 30 32 35 36 37 38 37 39 36 37 40 41 39 41 42 42 42 42 44 40 38 38 38 38 35 34 32 30 27 27 28 22 22 22 20 21 16 19 18
23 25 29 29 29 27 28 29 29 30 32 33 35 37 38 40 37 37 40 42 42 45 40 43 43 45 43 44 48 45 39 38 38 33 30 31 28 28 28 19 16 23 20 19 18 18 18
21 24 26 29 30 29 28 28 28 29 31 32 33 34 38 38 38 37 42 42 43 42 44 42 41 41 50 44 41 38 39 39 36 35 34 32 29 29 26 20 23 19 14 18 18 19 20
15 21 24 25 29 29 29 29 28 27 28 30 33 34 35 38 39 43 41 39 42 43 42 42 42 47 40 38 38 40 40 40 39 38 36 34 30 30 31 29 22 17 20 27 20 23 19
18 15 22 23 26 28 29 30 29 27 27 29 31 34 35 36 39 40 40 41 42 40 43 44 46 41 41 40 40 41 40 38 40 38 37 37 34 34 32 32 27 17 19 29 26 30 24
16 17 16 22 25 27 28 30 30 28 27 27 30 32 34 35 37 38 41 43 43 44 44 44 45 43 44 42 42 41 40 40 39 39 40 38 38 36 33 35 31 21 32 29 28 25 30
15 16 17 18 23 25 26 29 30 28 27 27 28 29 30 33 35 38 40 41 43 44 43 48 43 41 43 43 43 42 42 41 43 40 37 42 40 38 36 37 36 34 32 32 29 29 31
14 14 16 16 21 24 26 28 29 28 26 25 25 26 27 30 31 35 37 40 42 44 43 47 42 44 44 44 43 42 42 43 44 43 43 40 36 29 34 31 38 38 36 34 32 28 28

GFSGBSN_500_spd_024.txt.gz
Wind_Speed
33 33 31 32 32 31 31 32 31 30 30 29 27 25 23 19 18 18 18 18 17 19 20 20 20 18 16 15 12 11 11 9 9 10 10 11 13 13 17 8 17 12 7 7 5 1 3
34 34 33 33 32 32 32 32 32 32 32 30 29 27 24 20 20 18 19 20 20 19 20 20 21 20 18 15 13 11 10 10 9 10 10 11 12 12 9 13 16 14 8 7 5 3 4
34 35 35 35 35 34 34 33 33 33 33 33 31 29 25 23 21 20 20 20 21 21 20 20 20 20 19 14 14 12 10 9 10 10 10 10 10 10 11 10 10 8 7 5 3 3 3
33 35 36 37 37 37 35 35 35 34 33 33 33 32 29 26 24 23 21 22 21 20 21 21 21 20 18 18 15 14 12 11 11 11 11 10 10 8 6 6 8 5 4 1 9 11 10
28 31 34 35 37 38 39 39 37 36 34 33 33 33 32 29 28 26 24 24 22 21 21 21 22 21 19 18 18 17 15 14 13 13 13 13 11 9 9 7 3 10 4 5 10 13 12
22 23 26 28 33 37 39 40 40 39 36 35 33 33 33 32 29 29 27 25 24 23 22 22 21 22 22 20 19 18 17 16 14 14 14 13 12 11 9 9 7 5 12 8 15 10 10
20 22 25 26 27 31 35 39 41 40 40 37 35 33 34 33 32 30 29 28 26 25 22 23 20 23 19 19 20 19 17 16 16 15 13 12 14 11 4 9 20 22 19 18 11 11 12
21 20 21 23 24 24 24 28 35 40 40 41 39 35 34 35 33 32 30 31 27 26 24 24 21 21 19 21 20 20 19 17 16 15 14 11 11 9 19 17 12 11 22 18 10 13 11
26 25 24 23 22 24 24 23 25 33 37 40 40 40 35 35 34 34 33 31 28 28 27 25 24 23 21 20 20 20 19 18 17 16 15 14 5 22 13 14 13 12 12 8 13 11 6
34 28 27 26 25 24 21 21 23 23 29 35 39 41 41 36 35 34 36 31 30 28 29 27 25 25 23 22 21 20 19 18 17 17 16 18 19 15 15 15 14 6 12 18 12 11 4
23 22 30 27 28 27 27 25 20 23 23 27 32 38 42 42 37 38 32 33 32 29 29 24 30 28 23 23 24 22 21 19 18 17 18 14 21 19 14 15 17 12 21 14 14 14 15
23 26 26 27 28 28 28 28 26 22 22 24 25 30 38 43 43 38 36 33 33 33 32 28 29 23 26 25 26 25 22 21 20 20 20 21 19 18 16 16 16 18 16 16 14 14 14
23 25 27 29 30 29 29 28 30 27 24 23 24 24 33 41 46 41 37 35 33 36 26 18 29 24 24 25 25 25 23 23 21 18 16 17 16 16 17 16 16 16 16 12 9 13 23
25 26 27 27 29 29 28 30 29 30 26 24 23 18 26 35 36 42 42 41 40 34 28 17 15 24 23 23 25 25 24 24 23 21 12 11 14 16 15 17 15 15 15 14 13 12 21
24 27 27 28 28 28 27 28 30 29 28 26 24 20 21 25 31 35 39 45 39 27 22 22 24 20 21 23 24 26 25 23 21 22 22 8 13 10 15 16 18 13 16 14 18 19 21
25 26 27 29 29 30 28 28 28 30 30 29 26 26 23 25 29 32 36 34 32 32 31 31 23 28 21 20 24 22 24 24 24 23 22 17 10 13 23 20 18 18 18 16 12 16 18
27 27 28 29 29 31 30 29 28 29 30 31 30 29 26 28 30 33 31 27 35 42 39 35 31 17 19 19 24 24 21 21 20 20 21 25 25 11 20 21 15 17 16 19 21 20 21
29 28 27 29 29 29 32 31 30 29 30 31 32 33 32 32 31 29 30 30 37 23 38 37 36 35 31 22 21 24 18 18 24 21 23 25 25 22 17 15 12 13 18 16 17 17 19
28 28 27 27 28 30 29 32 32 31 30 31 34 38 33 35 33 30 31 35 35 37 30 33 31 34 33 35 34 27 19 29 30 28 33 25 26 25 22 19 13 23 19 20 22 24 24
26 27 26 26 26 29 30 29 32 33 32 32 32 32 35 36 36 39 39 36 40 37 32 32 34 36 38 34 33 29 32 36 34 30 31 29 27 28 19 19 24 25 18 11 15 21 19
25 25 25 26 25 27 29 29 31 33 34 34 33 35 39 36 39 37 39 41 46 39 34 37 37 35 33 34 35 34 32 27 38 34 32 29 33 30 25 26 17 12 15 11 16 15 20
20 25 25 25 27 27 27 29 30 32 33 36 37 39 33 36 39 40 42 41 44 40 38 39 39 39 37 37 37 41 43 36 37 38 34 37 33 32 29 24 23 23 22 23 24 18 19
18 19 25 25 26 28 28 28 30 31 32 33 35 38 36 39 36 38 39 41 41 39 44 45 47 43 40 44 47 47 46 44 51 39 36 36 32 33 28 26 23 25 22 22 23 20 22
17 18 19 24 25 28 30 29 28 31 32 32 34 36 37 38 35 34 36 40 43 42 46 47 45 43 54 49 45 44 41 41 39 35 36 35 35 32 29 26 27 18 22 22 24 16 18
15 17 18 20 25 26 29 31 30 29 31 32 32 33 34 36 39 39 41 44 45 46 44 45 41 45 44 41 39 41 43 42 39 37 37 39 36 32 29 28 26 21 28 23 14 17 24
16 15 18 18 21 26 27 30 32 31 31 31 32 33 34 37 41 43 46 45 41 41 39 41 44 44 35 38 41 42 43 40 41 40 39 38 37 34 30 32 32 24 23 22 17 21 32
16 16 17 19 18 24 26 28 31 31 31 31 31 31 33 35 39 37 40 42 43 45 43 42 44 42 41 40 40 40 39 38 39 38 39 39 37 35 32 34 34 30 31 39 37 27 29
18 16 16 17 18 20 25 27 29 31 31 32 31 30 31 34 37 34 37 38 41 42 41 46 46 42 38 42 42 39 38 35 36 36 23 31 35 36 33 35 36 33 36 43 35 26 28
17 16 16 16 18 18 22 25 28 29 30 31 31 30 30 32 33 34 37 38 39 38 38 44 44 39 40 39 41 41 40 37 30 26 32 31 30 29 31 31 38 41 42 35 33 34 33

GFSGBSN_500_spd_027.txt.gz
Wind_Speed
34 33 32 32 31 31 31 31 31 29 28 26 25 24 21 17 14 15 15 16 16 18 20 20 21 21 19 18 16 14 14 14 14 14 16 16 17 19 20 14 7 6 3 5 3 3 2
35 34 32 32 32 31 31 30 32 32 30 28 26 26 24 21 17 17 17 18 18 17 20 21 21 21 19 17 17 15 14 13 12 12 12 13 13 12 15 11 17 11 3 3 0 2 4
34 35 34 32 31 32 31 31 30 31 30 29 29 28 27 23 20 19 19 18 19 19 19 21 23 22 21 18 17 15 13 12 11 11 10 11 12 12 8 11 10 2 5 5 6 9 9
32 33 34 34 34 33 32 32 32 32 31 31 31 30 28 25 22 19 20 20 20 21 21 21 22 22 20 20 17 15 14 12 11 12 11 11 10 9 9 5 1 3 3 6 1 7 13
30 32 33 33 35 35 35 34 34 34 33 32 32 32 31 29 26 22 22 22 21 22 23 22 22 22 20 20 18 16 15 14 13 12 12 12 11 9 8 8 11 10 8 13 18 7 10
24 28 31 33 34 34 35 36 37 36 35 34 33 32 31 31 30 26 24 24 23 24 23 24 24 23 23 21 18 17 16 15 14 14 13 13 13 12 10 10 12 7 4 6 7 11 16
19 21 23 26 28 31 35 37 37 39 39 37 36 34 32 32 31 30 27 27 26 25 24 24 23 22 21 21 19 18 17 17 15 14 14 15 14 11 13 18 14 17 12 12 6 6 15
19 20 21 24 25 26 27 30 34 39 40 40 39 35 34 32 32 31 30 30 26 26 25 24 23 23 21 20 20 18 18 18 17 16 15 12 12 12 21 19 16 12 18 22 18 11 21
23 23 22 21 23 24 24 23 24 28 36 39 40 40 36 35 33 32 31 32 30 29 27 24 22 22 20 20 21 19 18 19 17 16 15 16 17 16 18 12 12 12 14 24 25 24 9
27 28 27 26 24 22 22 23 25 23 26 33 37 40 40 38 35 34 36 31 31 30 28 24 25 21 22 21 20 19 16 19 18 18 16 18 19 18 15 16 14 13 15 18 22 13 10
26 28 32 31 31 27 24 24 23 23 23 24 30 34 39 40 39 38 31 31 32 31 30 23 27 25 24 20 22 21 20 20 19 18 19 17 18 19 12 10 18 16 22 18 9 11 15
24 25 24 24 31 30 27 27 27 24 21 23 24 28 33 37 41 41 35 35 34 32 33 26 29 26 26 22 24 24 22 21 20 20 21 16 22 21 15 16 15 14 19 12 13 12 8
18 19 22 25 24 30 30 28 28 28 26 22 23 23 26 32 37 39 38 35 35 37 26 27 28 25 22 23 26 27 22 21 21 20 15 18 18 13 14 14 14 14 17 15 14 6 10
18 22 23 24 27 29 30 29 28 29 30 26 23 23 25 26 29 37 45 43 41 29 26 16 9 16 25 23 24 25 24 23 24 20 18 15 15 12 7 11 14 16 16 14 15 12 16
23 23 25 27 27 29 30 30 30 30 29 31 28 26 26 23 28 38 44 49 40 27 25 28 17 15 17 25 20 24 24 22 23 22 21 16 6 16 14 15 17 14 14 12 18 17 20
30 28 27 27 29 30 29 30 30 30 31 31 31 29 27 22 24 36 43 45 37 26 29 35 23 24 17 13 20 21 23 18 20 22 21 17 10 6 14 17 14 17 14 17 17 17 17
33 32 30 30 29 30 31 30 30 29 30 32 32 32 26 28 24 30 36 32 30 38 40 40 31 31 31 20 17 19 16 16 17 21 22 22 19 16 18 18 14 13 15 14 15 18 23
31 31 31 31 30 30 30 31 30 30 30 31 33 34 32 31 28 25 23 26 34 43 46 47 39 30 29 30 24 25 19 17 14 10 19 22 27 20 16 8 13 10 12 13 20 22 18
24 29 29 30 31 30 29 30 31 30 30 31 33 33 32 31 29 23 26 30 35 38 46 47 46 35 31 35 30 30 24 28 24 25 26 29 32 32 26 23 16 17 16 23 24 30 28
18 22 25 27 29 28 28 28 30 30 31 31 31 29 34 33 32 33 32 34 35 40 38 39 43 41 38 39 32 35 40 32 28 29 33 34 27 27 29 23 23 23 23 28 19 9 12
17 19 23 25 26 26 26 26 28 29 29 32 33 37 40 39 38 35 35 34 38 39 39 38 33 44 43 40 40 36 39 41 34 33 31 32 30 31 27 26 30 27 19 11 12 16 21
19 18 20 24 25 25 25 26 25 28 28 32 36 35 30 33 36 42 40 40 40 43 42 40 33 36 40 43 41 43 42 33 39 38 35 31 32 30 28 28 26 27 30 20 20 22 26
18 17 17 19 24 25 25 25 25 27 28 28 28 32 30 31 28 33 43 43 42 47 41 35 36 38 39 44 49 51 48 39 38 41 36 36 37 33 36 29 29 32 22 25 26 26 28
18 17 16 16 19 25 25 26 27 26 28 29 31 32 33 34 32 33 33 36 37 36 38 39 46 46 47 43 41 37 40 42 39 47 37 30 31 33 29 29 34 26 22 24 26 32 35
18 16 15 14 15 19 25 26 28 28 28 29 30 31 31 33 36 35 36 35 40 48 45 44 49 46 45 41 40 43 42 43 39 43 41 32 33 32 32 35 34 29 28 30 35 36 39
19 18 16 15 14 15 19 26 27 30 29 29 30 31 32 36 38 37 40 43 45 44 47 48 46 42 36 35 39 46 44 40 42 40 39 36 35 36 33 40 37 26 33 35 34 36 38
19 21 19 17 15 15 16 22 28 30 31 31 31 31 31 35 36 37 39 40 41 40 37 40 43 45 38 37 38 39 38 35 39 38 39 38 37 37 34 40 37 30 29 37 39 37 42
19 19 20 18 17 15 17 17 24 30 32 33 33 31 31 34 34 33 34 33 31 33 34 38 39 42 37 39 40 40 35 32 34 32 34 39 41 41 41 41 40 37 35 37 37 36 42
20 20 20 19 19 17 16 19 20 27 30 33 33 32 31 32 33 31 35 36 35 36 34 36 40 40 37 36 40 41 38 33 32 36 30 33 38 35 38 42 43 41 38 38 37 33 32

GFSGBSN_500_spd_030.txt.gz
Wind_Speed
36 35 35 35 33 33 33 33 32 31 30 28 26 23 20 17 15 15 16 15 15 16 18 21 21 22 21 18 16 15 15 17 20 21 18 19 13 10 15 15 12 10 9 7 7 7 3
36 36 36 35 34 33 33 33 33 32 30 28 27 25 23 21 17 17 17 16 16 18 19 21 22 22 21 18 18 17 16 16 16 19 17 15 9 10 8 9 4 6 2 5 4 2 9
36 37 37 36 35 34 33 32 31 31 31 30 28 26 25 22 21 18 16 17 18 18 20 22 23 23 21 18 20 19 18 17 15 14 15 13 15 13 9 8 5 4 7 6 6 4 5
35 37 38 37 35 34 33 32 31 31 30 30 30 28 26 24 22 19 18 19 19 20 21 23 24 24 23 23 21 19 17 16 15 15 14 14 13 12 10 5 5 9 6 4 3 8 11
31 34 36 37 36 34 33 33 32 31 30 30 29 29 28 27 25 22 20 21 21 21 22 22 24 25 25 26 22 20 18 16 14 14 13 13 14 13 12 12 13 17 10 4 4 8 7
26 31 34 35 35 36 36 35 33 33 33 32 31 31 30 30 29 26 24 23 23 22 21 23 23 24 25 25 24 22 19 17 15 14 13 13 13 10 11 17 16 19 11 2 4 3 7
21 25 30 33 33 33 34 35 35 35 35 35 34 33 32 31 30 29 28 24 23 22 22 23 23 25 23 22 24 23 21 19 18 16 14 14 12 12 19 23 20 20 12 7 5 6 9
17 19 22 26 29 31 33 34 34 35 36 36 36 35 34 33 31 30 30 28 26 24 23 24 23 25 23 23 22 22 21 19 18 18 16 13 12 18 21 22 21 16 15 14 10 14 11
18 19 20 21 22 24 25 27 29 31 34 37 37 37 37 35 33 33 34 30 29 25 25 23 24 24 24 24 24 23 21 20 20 17 17 17 19 22 22 20 20 15 19 21 22 19 19
23 22 22 21 22 21 25 26 26 27 27 30 36 38 39 39 36 37 34 30 28 26 27 22 22 21 23 21 21 24 22 21 19 17 18 21 20 21 21 17 14 14 21 23 28 28 26
25 26 26 26 26 25 25 25 25 25 25 23 27 33 39 40 41 38 33 30 33 28 29 25 27 24 23 22 24 20 23 21 19 20 20 21 22 23 18 16 19 17 21 21 14 14 14
31 27 26 26 26 32 30 28 27 26 23 24 23 25 35 39 41 39 35 36 33 31 31 28 29 27 24 21 23 23 23 23 23 24 22 23 24 23 20 17 13 14 19 11 12 11 10
13 17 21 27 27 26 31 35 31 29 26 23 22 23 27 33 39 39 40 40 37 36 29 29 27 25 24 24 24 25 24 21 23 22 20 22 23 20 14 14 13 13 19 13 13 13 17
15 16 18 21 23 28 29 26 34 30 28 28 25 22 24 28 31 36 43 43 42 32 25 25 26 29 28 23 25 27 26 23 24 22 20 23 21 13 7 5 9 13 17 16 15 15 20
22 23 23 22 23 26 30 30 32 33 30 30 30 26 25 25 28 33 38 42 41 31 28 36 27 29 31 32 25 27 28 24 23 21 23 21 19 21 21 14 12 12 11 14 16 16 16
25 27 29 29 29 28 30 31 33 32 31 30 31 34 29 27 28 30 32 35 36 33 32 35 28 24 22 13 24 25 25 21 21 24 22 19 23 19 20 14 15 7 11 13 14 15 15
26 28 32 34 34 34 32 32 32 31 31 31 33 33 34 32 30 29 24 29 33 38 38 37 34 29 24 24 23 23 23 18 20 22 22 23 24 18 21 17 10 7 11 14 14 16 19
30 31 27 30 35 36 36 34 33 32 31 32 34 34 35 35 31 26 20 23 35 41 43 39 42 36 31 27 25 25 19 11 13 19 22 27 25 24 23 23 17 12 9 9 18 22 22
28 26 26 27 33 32 33 33 33 33 32 32 33 34 35 35 31 28 23 23 37 46 48 43 49 41 40 36 29 27 21 21 16 18 21 30 31 29 25 22 22 15 13 14 15 18 20
21 20 20 20 24 29 29 31 30 31 32 33 33 34 38 37 37 33 28 27 36 41 51 49 48 46 42 40 36 33 29 31 27 24 23 23 29 33 27 24 24 25 21 20 22 24 20
20 20 20 18 21 24 27 27 27 29 31 34 34 37 34 35 37 35 32 31 33 37 45 50 48 46 42 39 44 38 36 37 40 36 31 28 30 31 30 33 34 33 30 29 26 23 27
18 19 19 18 18 24 24 25 25 28 30 31 34 33 30 30 34 35 36 36 37 38 44 43 50 47 51 42 46 42 43 43 41 39 37 36 35 34 32 30 26 26 27 25 27 29 31
18 19 19 17 17 20 25 24 25 25 28 30 30 31 30 32 32 35 41 42 41 41 44 42 41 46 49 48 47 45 43 43 44 40 39 41 35 34 30 29 30 31 19 25 35 33 31
18 18 18 16 16 17 22 25 25 25 28 29 31 31 33 34 33 34 34 42 40 42 45 41 40 45 45 45 50 45 46 43 45 42 38 40 34 33 32 33 38 31 29 32 34 33 32
17 16 16 15 14 14 17 25 26 26 27 28 30 30 30 35 34 34 35 32 45 44 46 44 44 41 43 41 45 49 47 46 44 39 41 41 34 35 36 36 37 32 33 39 38 38 36
18 16 18 19 16 14 14 17 27 27 28 28 29 30 30 33 33 34 35 35 39 47 53 48 49 41 37 40 42 46 46 47 50 47 41 42 36 36 37 36 35 27 31 38 41 38 35
23 21 19 18 18 16 14 15 18 29 29 30 29 28 29 32 31 33 36 37 37 39 47 52 50 45 38 37 41 41 42 40 41 39 37 38 40 40 40 40 37 30 37 36 36 37 35
28 23 22 20 19 18 16 14 17 19 30 30 31 29 29 31 29 31 35 36 35 33 33 34 35 44 41 39 38 38 39 39 42 43 43 44 44 44 42 42 40 34 40 38 37 40 38
31 28 23 21 20 19 18 16 14 18 22 30 31 31 30 32 31 31 34 35 31 30 31 32 35 34 29 31 38 37 37 37 38 36 39 41 44 43 43 42 43 38 39 36 39 38 37

GFSGBSN_500_spd_033.txt.gz
Wind_Speed
35 35 34 34 33 32 33 33 32 32 30 27 26 23 19 18 17 14 14 15 14 15 16 17 18 18 17 16 15 15 16 16 18 18 17 14 5 5 9 8 4 4 11 10 5 3 2
34 36 36 36 35 35 34 33 33 32 32 30 28 26 23 20 19 18 17 16 16 16 17 19 19 19 19 18 17 17 16 16 18 19 17 14 7 4 6 6 5 2 3 8 7 6 1
32 35 37 38 37 36 35 33 33 33 33 32 30 29 26 23 22 22 19 17 18 18 18 19 20 21 21 19 19 17 17 16 17 20 18 14 13 11 5 4 5 6 4 1 4 3 1
33 35 37 38 38 37 37 36 34 34 35 34 31 30 28 26 24 23 21 21 19 19 19 20 22 22 22 22 20 19 19 18 17 17 19 18 17 13 8 7 5 6 6 5 1 5 4
29 35 37 39 40 39 38 37 36 35 34 33 33 32 30 28 26 24 23 23 21 20 20 21 22 24 24 23 22 21 21 18 17 16 16 15 14 11 10 9 18 14 12 10 11 6 10
24 28 35 38 40 40 39 37 37 36 34 33 32 32 32 30 29 27 24 23 22 22 20 21 21 23 25 23 23 22 21 18 17 16 16 15 12 10 12 22 23 19 15 11 7 11 11
22 24 28 34 38 40 40 39 37 37 36 36 35 33 32 30 31 30 28 26 25 23 20 21 22 23 23 24 25 24 22 20 18 16 17 15 13 15 23 24 19 20 19 14 10 10 9
20 22 24 28 34 36 38 39 39 38 37 37 36 35 35 33 32 33 30 29 26 22 23 20 22 23 23 24 26 25 22 22 20 20 18 14 14 20 24 23 20 23 22 19 15 12 14
20 19 20 23 27 32 34 35 36 36 36 36 35 36 35 35 35 35 31 28 26 26 26 25 23 23 25 25 25 25 24 23 22 21 18 16 22 24 24 24 21 20 20 20 18 18 18
19 19 20 20 21 24 27 30 33 34 34 34 35 35 35 36 37 38 33 30 28 27 28 24 24 22 25 23 24 27 26 23 21 22 21 20 22 24 24 22 20 17 23 26 22 21 23
24 24 23 22 21 22 23 25 28 29 29 30 31 32 35 37 38 38 35 35 33 29 29 27 27 25 25 23 25 26 27 24 22 23 23 23 24 23 22 18 20 19 21 23 20 19 25
25 26 25 25 26 27 27 26 25 26 27 27 27 27 31 36 39 37 37 38 35 33 30 29 27 25 25 22 25 26 26 27 26 27 24 24 20 20 20 18 21 19 22 19 15 16 15
16 21 26 29 27 27 27 28 30 29 28 27 26 27 27 30 35 38 39 40 37 38 31 30 27 28 25 25 25 26 26 24 24 25 22 24 22 21 20 16 21 14 15 16 16 16 18
16 16 18 21 23 25 30 30 28 32 29 29 27 27 28 29 27 34 42 43 42 34 30 33 32 29 30 28 27 27 26 24 26 25 24 25 24 18 14 20 15 15 18 16 14 17 18
19 20 21 21 21 23 24 27 29 31 33 35 32 30 29 24 24 31 40 46 41 36 33 34 33 31 30 31 32 33 30 25 24 25 25 25 24 20 26 24 21 16 14 14 14 15 15
19 21 24 25 27 27 26 27 28 31 31 35 33 32 32 29 26 29 35 37 36 36 37 33 34 35 33 35 34 34 32 28 25 26 25 24 20 25 27 23 23 18 13 13 14 16 15
19 22 23 24 28 31 32 31 30 31 32 32 35 34 35 34 30 28 27 24 30 38 40 38 34 36 34 32 35 37 34 26 25 27 26 24 23 24 23 21 16 12 12 14 16 16 18
20 21 21 22 24 28 32 36 36 33 34 33 35 36 35 37 36 29 24 27 29 38 42 42 36 38 36 36 34 34 35 29 25 27 28 25 26 28 23 23 22 15 13 12 13 16 19
21 23 23 24 24 22 25 32 38 38 36 35 35 37 37 37 38 34 31 30 27 37 44 45 41 42 39 35 35 29 26 31 30 30 27 28 30 30 28 26 25 21 20 18 17 18 17
21 24 25 26 24 24 25 29 33 35 34 35 36 37 39 37 38 36 35 30 26 38 48 47 44 48 41 36 35 33 29 25 30 29 28 27 31 30 30 27 25 25 27 23 19 20 22
21 23 24 25 23 23 22 25 30 32 29 32 35 36 35 37 38 37 37 31 27 38 49 51 50 49 47 40 37 34 32 28 28 29 26 31 29 33 31 32 29 25 25 24 24 26 28
22 22 23 23 21 20 21 22 26 28 27 29 33 35 34 35 35 34 34 33 32 38 48 54 51 47 48 44 45 39 35 33 34 34 28 26 28 30 35 36 32 30 30 29 31 34 36
21 21 21 21 18 17 19 21 25 25 26 29 31 32 34 35 33 34 34 36 37 38 46 49 52 49 48 45 50 46 40 38 38 34 32 30 30 29 29 30 29 30 30 28 31 31 32
22 20 20 19 16 15 17 18 23 25 26 28 31 31 32 35 33 33 34 37 40 40 43 42 45 50 49 48 46 46 46 37 37 36 35 35 36 36 35 35 33 32 29 29 31 34 35
21 20 18 18 17 15 16 16 18 26 25 27 29 30 31 34 35 35 33 36 39 41 44 44 43 45 46 46 46 46 45 42 36 39 38 40 38 38 40 41 36 35 34 36 39 40 38
22 21 19 18 17 18 17 16 16 19 27 26 28 29 31 33 36 37 35 37 40 42 43 47 44 44 42 43 46 50 49 45 42 41 44 38 42 43 40 40 38 38 39 36 40 38 34
23 23 21 20 19 18 18 17 16 16 22 27 28 29 31 33 33 36 36 36 40 41 42 45 42 44 40 40 38 42 43 49 54 46 40 43 46 44 42 45 45 39 35 37 38 36 32
27 25 25 24 22 20 19 17 16 16 17 24 29 30 30 32 32 34 36 37 39 40 38 39 44 44 37 36 38 39 40 40 43 48 52 53 50 49 49 45 43 39 39 39 39 38 34
29 27 25 26 25 22 20 18 17 16 16 18 27 30 31 32 31 33 35 36 39 39 37 36 34 35 39 43 38 38 38 41 42 43 44 47 48 44 45 43 43 41 38 37 37 36 33

GFSGBSN_500_spd_036.txt.gz
Wind_Speed
33 34 32 32 32 32 32 31 31 31 26 27 24 23 22 19 18 16 15 15 14 14 14 13 13 13 14 13 13 12 11 12 13 13 10 5 6 7 6 8 2 7 8 6 3 7 9
32 35 34 33 33 32 32 32 32 32 33 30 26 24 23 22 20 18 17 14 14 15 15 14 14 15 15 15 13 12 12 14 15 15 11 8 7 5 5 6 4 2 3 6 4 6 6
32 32 35 35 34 34 33 32 32 33 32 32 31 28 25 24 21 21 21 19 15 15 15 15 15 16 17 16 15 14 14 14 15 16 14 12 10 10 8 7 4 4 6 6 3 4 3
32 32 33 35 36 35 35 34 34 33 33 32 32 31 30 27 25 23 24 22 19 17 16 17 17 18 18 19 17 16 16 15 15 15 17 16 14 11 13 11 7 7 10 8 7 5 4
32 33 33 34 37 37 37 36 35 34 33 33 33 32 31 30 27 26 24 25 24 20 18 18 18 19 20 20 19 17 16 15 14 15 15 16 14 10 12 13 13 15 12 9 6 6 6
29 31 34 35 36 38 38 37 36 36 35 34 33 33 33 31 28 28 25 25 23 23 18 18 19 20 21 20 20 19 17 16 15 14 14 14 12 11 12 11 17 19 14 13 14 14 12
23 24 26 30 36 38 40 40 38 37 36 35 33 33 32 32 32 31 28 27 23 22 22 20 20 20 20 22 23 22 20 18 16 16 16 15 11 12 15 15 18 20 16 15 16 13 9
21 21 22 23 28 35 39 40 40 39 38 37 36 35 33 32 33 33 30 28 26 24 24 22 20 20 20 22 23 24 22 20 19 19 17 15 14 19 18 19 16 22 20 17 18 18 15
19 19 21 21 23 27 35 38 40 40 39 37 37 37 37 36 36 34 31 29 28 27 27 26 21 20 22 22 23 24 23 23 21 19 17 15 20 22 23 23 19 22 21 19 20 23 20
19 22 19 19 19 23 27 32 35 38 38 38 38 38 38 38 39 37 34 30 30 30 29 26 26 23 22 23 23 24 24 22 22 21 19 21 23 23 23 23 22 21 22 23 22 22 23
21 23 20 19 19 20 21 27 31 34 36 36 36 36 37 37 38 37 35 37 36 31 29 29 29 26 23 22 24 25 24 23 22 22 20 23 22 22 23 23 22 22 21 23 24 23 22
21 22 23 22 21 21 21 22 24 27 30 33 35 35 37 37 38 37 35 38 37 35 31 29 28 28 26 22 24 26 26 26 26 25 23 24 22 21 22 19 18 19 20 22 21 15 19
17 22 24 25 25 25 25 25 25 25 26 28 28 30 31 32 32 33 36 39 38 39 33 33 29 29 28 27 26 26 26 25 24 25 22 23 22 21 21 15 16 20 18 20 18 16 18
14 15 19 23 28 30 28 26 26 27 28 26 27 29 30 30 28 28 33 39 42 35 34 34 31 27 28 28 29 26 28 26 25 25 24 25 23 23 19 15 21 22 22 21 17 15 17
16 18 19 19 20 22 24 26 28 29 29 29 31 31 30 26 27 28 30 36 40 37 35 33 31 30 29 30 31 31 27 26 26 25 23 23 23 23 22 20 23 19 23 20 17 17 16
15 16 18 20 23 25 25 24 25 26 29 29 31 33 32 30 28 29 30 29 33 38 37 34 34 34 32 32 32 33 31 27 26 24 24 24 22 24 24 25 25 22 22 19 17 18 15
20 18 18 19 22 24 27 29 28 27 28 29 30 31 36 34 33 32 29 24 26 35 39 38 37 36 35 35 34 32 34 30 28 27 26 24 24 26 26 29 25 21 20 22 22 19 15
20 19 19 20 21 25 26 28 30 31 32 30 31 31 33 36 36 34 29 23 25 32 39 42 40 38 37 35 35 34 35 30 27 30 32 27 27 28 27 27 23 23 20 22 21 17 17
21 21 20 21 21 21 23 26 28 30 33 34 33 34 33 35 36 35 33 28 28 30 37 43 42 41 38 36 34 34 32 32 33 32 31 30 30 29 27 24 24 26 25 21 18 17 17
23 22 21 21 19 18 16 15 18 23 32 36 36 36 35 35 36 36 35 33 29 32 32 39 42 43 40 39 36 35 32 26 31 34 29 32 32 32 29 24 26 26 27 26 23 19 16
23 22 18 18 18 18 17 17 18 19 24 28 32 35 35 36 38 36 35 36 32 31 32 34 41 43 41 41 36 33 30 27 29 29 27 30 31 31 32 27 26 25 25 26 25 26 25
22 21 18 17 17 18 17 18 18 20 21 25 30 30 34 37 37 34 34 35 35 36 36 34 39 45 43 42 39 34 33 31 27 29 29 31 29 28 31 34 31 28 28 26 27 26 28
22 20 17 18 18 16 17 17 18 19 22 25 28 30 32 34 36 33 33 35 38 39 36 34 35 47 45 42 42 37 37 33 32 30 28 27 26 26 24 29 32 34 33 32 30 28 27
23 20 17 17 17 16 16 16 16 18 21 26 28 28 31 33 33 35 33 35 40 41 38 34 34 45 47 44 43 43 41 38 35 33 30 28 29 27 26 26 28 30 30 30 29 30 32
22 21 18 16 17 15 16 14 14 16 18 26 27 27 29 32 32 35 34 33 39 42 39 35 36 39 42 46 43 45 40 36 36 36 34 32 33 33 31 30 31 30 30 31 32 32 33
22 20 19 17 17 16 16 14 13 15 15 20 27 27 28 31 32 34 35 32 36 40 41 40 39 36 35 41 46 45 41 39 35 38 37 34 36 37 37 34 35 34 34 37 37 36 37
23 21 19 18 17 17 17 16 15 15 15 15 25 26 27 29 31 32 35 37 34 38 40 41 38 38 37 36 39 43 47 42 41 40 36 39 41 42 41 40 39 38 36 37 38 37 35
24 24 21 20 19 18 19 17 16 15 15 16 16 28 27 27 29 31 33 35 38 36 39 38 39 37 39 37 35 36 41 50 49 48 44 43 44 47 46 47 41 34 39 39 40 42 38
28 26 25 24 21 19 20 19 17 16 15 15 15 18 29 28 28 30 32 33 37 40 36 38 37 39 38 38 38 36 36 39 44 49 51 51 52 48 44 37 42 42 42 41 40 37 37

GFSGBSN_500_spd_042.txt.gz
Wind_Speed
33 34 35 34 34 34 32 31 30 31 30 30 28 23 24 22 20 19 16 16 13 13 11 11 11 11 12 9 9 10 12 14 16 14 15 15 14 14 16 12 7 6 2 1 2 5 4
31 33 36 36 35 35 34 33 31 30 30 30 29 30 24 22 21 20 18 16 14 14 12 11 11 12 11 11 11 12 13 14 16 16 19 19 18 18 18 14 13 5 5 4 4 6 6
31 31 33 36 37 37 36 35 34 33 32 30 29 27 27 27 23 21 19 19 16 15 14 11 11 12 12 12 13 13 13 14 14 17 19 19 20 21 18 14 10 5 4 6 7 8 5
32 32 32 33 37 38 37 37 36 35 33 32 31 29 28 29 24 22 21 21 17 15 12 10 10 13 13 13 14 13 12 13 14 16 18 17 17 18 19 17 12 11 5 5 13 10 8
32 32 32 32 33 36 37 37 37 36 35 34 33 31 31 29 26 24 21 24 21 19 16 11 11 13 14 14 15 14 13 12 13 14 18 18 15 16 15 16 12 12 6 9 9 12 9
31 32 32 33 32 32 35 37 38 38 38 36 35 34 32 33 31 28 25 22 25 23 21 17 14 14 14 16 17 16 15 14 13 13 15 18 19 16 15 16 12 14 12 10 12 10 7
29 32 33 33 33 32 32 34 37 38 38 38 37 36 34 34 31 30 27 26 23 23 26 25 20 16 15 16 18 18 17 15 15 13 13 15 18 18 16 19 23 20 15 15 15 12 8
26 29 31 33 33 33 32 33 34 37 37 37 37 37 35 33 32 30 28 28 26 24 23 21 22 20 18 17 18 20 20 19 17 16 14 14 16 20 17 17 19 16 15 13 15 11 8
24 26 29 30 31 32 32 33 34 34 36 37 37 38 37 35 33 31 31 29 27 25 24 23 21 23 19 18 19 21 22 21 20 18 17 17 20 17 16 16 16 13 13 16 14 10 10
21 24 26 26 27 28 29 30 33 35 37 36 38 38 37 36 35 32 30 30 29 26 26 26 25 26 23 19 19 20 22 22 21 21 20 20 19 17 15 15 14 12 13 15 16 11 9
20 22 23 24 24 25 26 26 26 28 32 37 38 39 38 36 35 33 31 30 28 27 29 30 28 25 23 22 18 19 22 23 24 23 21 23 20 18 15 16 15 16 12 14 17 15 16
24 23 23 23 23 24 24 24 24 24 26 30 36 39 40 37 36 34 34 34 31 30 33 30 29 28 26 25 23 20 22 23 25 24 25 23 21 19 19 17 17 17 14 14 16 15 14
27 24 26 23 23 25 24 23 24 22 20 23 30 36 37 39 37 36 36 35 34 37 35 32 29 27 28 28 26 23 21 22 24 23 24 24 23 22 21 19 19 17 15 9 10 11 11
24 29 21 22 22 22 23 23 21 20 19 18 23 30 33 35 37 37 36 36 39 37 34 35 32 31 27 29 28 27 26 23 24 24 26 24 24 22 22 20 19 17 14 11 11 11 11
6 4 8 13 20 23 24 23 24 24 22 21 20 21 25 30 34 35 34 36 36 34 34 33 33 31 32 31 30 29 27 27 24 24 24 24 23 24 23 22 20 20 18 17 16 19 14
10 10 10 11 12 14 17 19 21 25 24 23 24 24 23 24 28 31 33 34 33 33 34 34 34 35 33 35 32 30 30 26 23 24 25 27 26 25 25 23 22 23 19 16 15 13 9
15 13 12 11 11 12 12 14 17 20 22 26 29 26 26 27 28 30 31 32 30 29 31 33 37 37 38 36 35 32 30 27 25 24 27 26 25 25 25 24 20 23 22 19 14 15 10
21 19 17 15 15 16 15 14 14 16 19 22 23 27 30 30 29 32 30 30 27 28 29 31 34 40 40 40 36 35 31 27 28 27 25 25 25 27 21 28 25 24 21 21 15 18 15
23 22 22 21 19 18 18 19 20 19 19 21 24 25 26 29 33 32 33 32 30 28 29 31 33 40 43 41 37 37 34 31 26 28 28 26 26 25 26 26 25 23 23 22 20 19 15
24 23 23 23 21 21 20 19 21 22 22 22 23 26 28 29 30 33 32 35 34 32 30 31 31 34 42 43 40 39 34 32 30 27 25 29 29 26 19 17 20 22 20 22 21 15 14
24 23 22 21 21 22 23 21 21 21 23 22 23 26 29 32 33 31 33 33 33 35 35 32 31 31 37 43 43 37 36 34 32 31 28 29 28 25 25 26 26 21 21 22 24 20 17
24 25 22 21 22 21 21 21 20 21 22 23 24 26 27 31 34 34 34 33 34 37 36 35 32 32 36 39 39 43 40 35 36 32 30 25 28 29 27 26 28 28 26 26 30 30 26
25 27 27 24 22 21 20 20 19 20 22 21 21 24 25 27 31 34 37 35 35 36 37 39 37 35 31 32 41 39 38 38 35 32 30 28 27 28 28 26 34 34 31 28 27 26 21
27 30 29 28 25 21 20 19 18 18 17 16 18 20 21 26 29 28 31 35 37 37 38 40 39 36 34 28 31 36 37 37 38 34 33 29 26 27 23 25 32 32 29 30 27 26 24
26 28 28 29 27 24 20 18 17 15 13 13 14 15 19 24 27 29 27 29 35 37 38 40 40 39 34 32 31 35 35 34 35 35 32 28 28 31 30 25 25 27 36 34 29 29 27
27 26 26 27 27 25 20 17 16 15 13 12 12 10 12 17 21 25 28 29 33 37 38 40 42 41 38 34 33 36 32 32 34 34 32 31 30 31 31 27 25 27 23 22 24 26 23
29 27 24 26 27 25 21 18 17 16 14 13 11 8 8 10 16 22 25 26 30 35 38 39 40 42 41 37 33 33 28 35 33 34 34 31 31 31 31 29 32 26 25 27 24 24 24
28 26 24 27 28 27 22 19 16 16 15 13 11 8 7 8 12 19 23 24 29 33 35 38 40 43 43 38 37 30 33 37 41 41 35 33 32 30 32 33 29 30 27 27 30 31 31
29 25 25 29 31 29 25 21 18 16 15 15 12 10 9 9 11 17 22 24 26 30 32 38 38 32 47 40 40 37 36 34 42 42 41 38 38 35 36 33 36 32 31 31 32 33 35

GFSGBSN_500_spd_045.txt.gz
Wind_Speed
34 35 35 35 34 33 32 31 32 34 32 32 33 30 28 26 24 22 17 15 15 15 14 13 12 12 11 12 10 10 12 16 17 15 15 14 13 15 11 5 10 5 7 6 3 5 2
34 35 36 36 36 35 34 33 32 32 33 31 32 29 28 27 23 19 18 16 18 15 15 13 13 12 12 12 11 11 11 14 15 15 18 19 20 19 17 15 10 10 10 6 3 7 1
34 35 37 37 38 37 36 35 34 33 32 33 32 31 30 26 23 21 19 18 18 16 15 16 14 13 14 12 13 12 12 13 13 16 20 22 19 19 14 12 12 12 7 3 7 6 5
34 35 35 37 38 38 38 37 36 36 34 33 31 30 29 27 27 24 20 19 19 16 16 17 14 13 13 14 13 14 14 14 14 17 19 22 23 22 22 15 13 7 3 7 13 16 11
34 36 36 35 36 38 39 39 38 38 37 35 33 31 29 27 26 27 24 19 21 20 17 15 14 13 14 14 14 15 15 15 15 19 20 19 20 22 20 14 3 9 13 17 5 13 14
32 35 37 36 36 36 39 40 40 39 38 37 36 33 31 30 28 28 27 22 21 23 21 20 15 13 14 15 15 16 16 16 16 19 21 21 19 18 17 13 8 9 11 10 10 7 9
30 31 35 36 36 36 35 37 40 39 39 38 38 36 34 33 31 31 29 26 23 25 26 24 21 19 14 14 15 16 16 16 16 17 21 23 23 21 16 15 15 19 12 15 12 12 8
32 31 32 35 36 35 35 34 36 39 40 40 39 38 37 36 34 33 32 30 27 25 23 27 27 24 19 15 15 17 18 18 17 17 19 21 23 18 19 27 25 20 14 11 11 14 9
31 31 29 32 34 36 35 35 34 34 37 40 40 39 38 37 36 34 33 31 30 27 25 25 22 23 24 20 18 17 20 20 18 18 18 21 11 25 19 18 19 16 14 12 14 12 6
28 30 28 30 31 32 34 35 34 34 33 34 38 39 39 39 38 35 34 32 29 28 26 25 26 25 21 22 20 19 19 21 21 19 20 22 23 18 18 16 14 13 13 15 14 11 1
24 26 26 26 28 30 31 33 34 33 33 34 34 36 39 39 38 38 32 32 30 28 26 28 27 22 22 23 22 19 20 21 22 22 21 17 22 18 18 16 14 10 15 14 12 12 11
23 23 23 26 26 27 28 30 31 30 31 32 34 36 37 39 39 36 35 32 29 28 27 32 29 26 24 23 23 22 20 21 24 24 23 24 21 19 18 17 16 13 13 10 10 10 12
26 26 22 23 25 25 25 25 26 26 27 26 28 29 34 39 39 37 35 33 32 34 31 27 27 25 25 25 25 23 21 20 22 22 22 24 22 21 20 19 16 15 11 7 8 9 11
33 25 28 28 25 25 25 26 25 26 27 26 27 27 29 35 39 39 37 36 38 32 27 31 31 27 25 26 28 27 26 22 21 22 15 18 21 24 23 20 13 17 15 11 7 12 17
5 38 28 28 28 27 24 26 27 26 24 24 24 22 23 28 35 39 40 40 38 34 36 37 33 30 26 27 26 28 28 24 22 22 24 14 18 18 25 22 20 13 17 14 17 16 15
3 5 10 13 17 21 24 24 26 26 26 25 24 22 21 25 30 34 39 40 38 44 40 37 30 22 22 22 31 27 26 27 24 24 24 17 18 19 20 22 23 22 15 16 14 14 15
13 13 10 14 13 14 17 19 23 26 26 27 27 27 24 24 25 31 34 32 39 39 35 34 32 30 29 22 22 22 24 24 27 25 25 25 24 14 20 25 20 22 23 18 13 12 15
21 17 16 15 14 15 15 15 16 19 20 23 27 31 28 28 29 28 29 32 39 31 33 32 35 36 38 29 34 25 21 19 26 26 27 24 22 22 16 18 19 19 18 19 17 16 16
24 24 22 21 19 17 17 18 17 15 15 18 23 23 29 31 31 31 34 31 28 31 31 33 33 34 40 41 40 33 23 27 32 26 26 25 27 21 24 17 23 25 23 20 18 20 17
24 25 23 23 22 22 21 19 19 19 18 18 17 22 26 28 32 32 34 31 32 32 32 33 32 35 37 37 41 39 38 40 34 29 33 30 27 28 19 17 18 25 23 22 23 20 16
18 20 22 24 23 24 24 22 21 21 19 19 20 23 21 29 31 31 33 34 32 34 33 35 33 33 30 32 38 40 38 24 35 35 31 32 34 29 27 24 12 17 19 19 22 21 18
20 19 18 20 22 22 23 23 23 22 22 20 20 22 23 28 28 31 31 30 32 35 38 35 33 31 30 33 33 21 32 24 28 35 34 32 32 28 30 27 20 22 19 20 20 21 23
26 21 19 19 20 21 22 23 23 24 23 21 21 23 24 26 28 31 34 37 35 36 34 35 39 38 38 34 33 42 46 48 43 41 37 35 32 30 31 24 24 28 22 20 18 20 20
29 27 23 22 22 23 22 21 20 20 20 19 21 23 25 26 26 29 37 34 36 37 36 38 40 38 41 36 29 32 36 40 41 38 37 37 33 29 26 22 28 27 24 23 23 20 20
34 30 29 27 26 25 26 22 21 20 19 19 22 25 25 26 29 30 30 32 36 37 37 38 37 43 38 34 31 29 33 38 40 40 40 35 32 26 25 26 22 33 29 26 23 24 31
37 35 31 31 26 24 27 25 22 20 19 20 22 23 22 24 30 27 27 29 31 36 41 38 40 37 38 36 33 32 31 27 34 36 39 38 33 32 24 27 29 29 26 30 29 29 30
37 35 35 30 25 25 27 26 24 20 18 19 21 19 19 21 21 25 29 31 31 31 33 40 38 35 36 35 33 30 27 22 23 24 30 35 34 32 28 26 29 36 42 32 26 32 39
33 33 34 30 26 25 25 28 26 22 19 19 20 18 17 16 17 21 25 29 32 34 35 37 32 33 32 37 28 23 22 26 27 31 30 32 27 26 27 33 40 48 25 24 30 33 35
32 33 33 29 27 26 26 29 27 22 18 18 20 18 17 15 15 17 21 26 29 30 31 31 33 37 38 34 40 37 33 32 36 32 32 33 33 38 37 45 30 51 24 31 27 26 25

GFSGBSN_500_spd_048.txt.gz
Wind_Speed
32 34 35 35 35 34 34 33 35 35 37 33 33 34 31 30 28 27 24 16 14 15 16 16 15 14 15 16 14 10 13 14 17 20 20 20 20 22 17 10 0 12 4 13 9 7 4
33 34 35 36 36 36 35 35 34 36 36 38 36 33 30 30 28 29 25 20 18 17 18 18 16 17 16 16 13 12 11 14 17 17 20 21 21 25 26 11 6 15 8 7 9 7 9
34 35 35 36 37 37 37 37 36 35 37 37 37 35 35 33 30 28 25 19 17 18 19 17 16 16 17 15 15 14 12 13 15 16 17 23 25 25 21 11 8 13 9 6 7 5 8
36 35 37 37 39 38 38 38 37 36 35 36 36 36 35 33 30 27 25 20 18 19 18 16 18 16 16 14 16 15 14 13 14 16 19 20 20 24 24 20 16 9 5 18 23 11 10
36 36 37 38 39 39 39 39 38 37 37 36 35 36 35 34 32 30 28 22 19 18 19 17 17 16 16 15 15 15 16 15 16 16 17 19 21 21 19 10 9 1 10 23 7 5 10
33 35 37 38 39 39 40 40 40 39 39 38 36 35 33 31 29 27 26 27 24 21 22 19 17 15 15 16 14 15 17 16 15 17 18 18 18 18 18 13 8 10 24 19 9 10 14
31 32 35 37 39 39 39 40 40 40 40 39 38 36 34 32 30 29 26 28 28 25 24 22 22 19 15 12 13 15 16 17 16 18 20 19 17 18 18 13 14 13 24 19 3 11 14
30 32 34 36 38 39 39 38 39 40 40 39 38 37 36 34 33 32 32 31 27 26 23 28 26 24 22 15 12 14 17 17 16 18 21 23 21 21 17 15 15 16 17 13 10 10 17
29 31 32 33 35 38 39 38 37 37 39 40 40 39 37 37 35 34 32 32 30 31 28 25 26 28 26 23 17 14 16 18 18 18 21 21 12 11 18 20 19 21 12 12 9 11 12
29 31 32 33 35 36 38 38 37 36 36 37 39 39 38 37 36 34 36 31 31 31 30 24 27 24 23 23 21 19 15 18 20 20 21 21 20 17 25 23 20 16 11 11 12 13 8
32 30 31 32 32 34 36 38 38 37 36 35 35 37 39 38 37 38 32 34 32 30 30 17 26 28 22 20 21 23 19 18 20 21 23 19 23 21 15 18 19 14 10 11 15 16 12
27 28 27 29 32 33 34 35 36 37 36 35 34 33 33 36 38 38 35 33 32 30 34 21 27 21 24 21 20 21 19 19 20 23 25 22 20 25 20 19 19 14 11 12 11 10 14
26 25 25 27 28 28 29 31 33 33 34 34 34 34 34 34 36 35 36 35 34 36 26 20 17 24 22 22 21 22 23 20 19 21 22 21 24 19 20 19 14 16 13 9 7 9 10
29 29 28 27 27 27 27 27 29 30 29 31 32 30 30 33 35 36 37 38 39 36 26 9 15 14 20 20 22 23 23 21 17 18 13 13 14 20 19 20 18 16 15 13 11 12 22
10 32 33 30 26 26 26 25 25 26 26 26 26 26 27 28 29 34 38 40 40 32 20 21 20 24 15 19 19 21 25 22 19 18 20 15 11 15 20 21 19 15 16 15 16 17 16
6 7 17 31 32 32 29 26 26 27 26 25 26 26 27 26 27 32 38 41 38 32 34 32 30 16 19 17 20 23 21 24 22 20 19 20 16 15 19 17 20 21 10 15 16 18 18
14 10 7 8 21 20 31 32 29 28 28 27 26 26 23 25 25 28 34 40 36 37 44 46 40 34 21 19 18 25 25 20 21 21 21 19 24 17 17 21 19 18 24 18 14 14 21
20 18 16 10 12 14 12 21 23 26 26 28 29 30 27 26 24 23 28 30 36 38 47 42 41 37 35 23 24 18 20 20 21 20 24 23 20 21 17 20 22 22 16 14 22 23 19
23 23 21 20 18 16 18 13 16 17 22 24 26 33 28 31 28 25 23 29 35 45 47 34 37 38 37 40 33 27 24 20 30 26 23 23 24 22 24 18 18 17 21 22 18 18 25
23 22 23 24 24 22 19 19 18 19 17 19 23 25 23 30 31 35 32 32 36 32 33 37 37 37 38 42 43 39 31 17 33 36 29 31 26 27 22 19 16 22 22 23 24 23 18
23 21 23 24 25 26 24 21 20 20 21 22 20 24 26 27 29 31 34 33 35 33 33 34 36 37 40 40 40 41 37 36 19 37 35 34 36 33 28 28 22 23 19 21 25 28 28
26 23 20 21 24 25 26 25 24 23 22 22 22 22 20 24 28 30 33 33 32 32 33 35 35 33 33 34 33 34 32 26 29 13 28 35 36 35 35 35 22 24 20 32 21 20 23
29 26 21 19 19 19 20 22 22 23 24 24 23 22 20 24 22 27 29 30 29 34 36 37 37 35 33 29 32 29 34 36 36 40 28 34 38 36 37 34 32 36 23 21 20 19 26
37 33 25 22 19 17 16 17 19 20 22 23 23 23 22 20 20 19 27 37 39 37 35 35 35 38 38 43 39 31 33 36 38 41 37 39 38 38 38 31 38 34 26 23 28 21 22
37 38 32 25 24 21 19 18 17 19 21 21 22 22 21 20 22 22 33 31 34 38 31 33 35 37 42 38 35 30 29 31 29 37 43 40 38 36 37 36 34 29 24 24 26 22 29
35 38 36 30 27 23 21 20 18 18 20 21 20 21 22 24 28 31 30 28 26 28 33 36 38 43 35 34 35 35 32 27 28 32 38 40 42 37 37 30 35 22 30 32 28 32 44
35 37 36 33 30 26 26 23 22 20 19 21 22 22 24 27 30 25 29 31 32 33 32 32 43 40 36 32 33 31 29 25 25 25 27 32 38 38 38 36 28 33 39 41 36 36 43
36 36 35 34 32 31 25 24 22 22 21 21 23 23 25 28 23 24 25 27 27 27 31 36 30 28 34 32 29 25 25 23 26 19 15 25 29 33 34 32 35 47 48 49 49 40 17
42 35 37 36 34 33 29 25 24 22 22 23 24 23 25 25 20 23 21 26 28 26 29 30 29 29 32 38 37 38 34 31 34 32 35 36 37 32 40 42 44 52 33 50 47 42 30